SWISSCUBE

Last updated on Mon Sep 15 2025 00:03:09 GMT+0000 (Coordinated Universal Time)

1 35932U 09051B 25257.16805278 .00000928 00000+0 19684-3 0 9994 2 35932 98.4170 155.1644 0007069 3.5807 356.5443 14.61554605848821
UTC large
Height (km)
Speed (km/s)
/
Latitude / Longitude
Inclination (degrees)
Orbital Period (minutes)
Azimuth
Elevation
Range (km)
Doppler Factor

Next 0 passes for location: London (51.5072 / 0.1276)

Sorry there are no passes over London.